This is the latest recevied weather packets stored in our database for station/object HASTNG-WX. If no packets are shown the sender has not sent any weather packets the latest 10 day(s).
| Time | Temp. | Humidity | Pressure | Rain* | Wind** | Luminosity | Snow |
|---|---|---|---|---|---|---|---|
| 1778080535 | 9.44° C | 48% | 983.6 hPa | 0 mm | - | - | - |
| 1778079665 | 8.89° C | 48% | 983.6 hPa | 0 mm | - | - | - |
| 1778078735 | 8.89° C | 53% | 983.5 hPa | 0 mm | - | - | - |
| 1778077852 | 8.33° C | 53% | 983.5 hPa | 0 mm | - | - | - |
| 1778076934 | 8.33° C | 53% | 983.5 hPa | 0 mm | - | - | - |
| 1778076063 | 7.78° C | 50% | 983.2 hPa | 0 mm | - | - | - |
| 1778075131 | 7.78° C | 58% | 982.5 hPa | 0 mm | - | - | - |
| 1778074251 | 7.22° C | 58% | 982.5 hPa | 0 mm | - | - | - |
| 1778073332 | 6.67° C | 58% | 982.6 hPa | 0 mm | - | - | - |
| 1778072459 | 6.67° C | 58% | 982.6 hPa | 0 mm | - | - | - |
| 1778071535 | 6.11° C | 69% | 981.6 hPa | 0 mm | - | - | - |
| 1778070652 | 5.56° C | 69% | 981.6 hPa | 0 mm | - | - | - |
| 1778069736 | 5° C | 69% | 981.6 hPa | 0 mm | - | - | - |
| 1778068867 | 5° C | 69% | 981.6 hPa | 0 mm | - | - | - |
| 1778067934 | 4.44° C | 75% | 980.8 hPa | 0 mm | - | - | - |
| 1778067050 | 3.89° C | 76% | 980.9 hPa | 0 mm | - | - | - |
| 1778066132 | 3.33° C | 76% | 980.9 hPa | 0 mm | - | - | - |
| 1778065261 | 2.78° C | 76% | 980.9 hPa | 0 mm | - | - | - |
| 1778064331 | 2.78° C | 75% | 980.2 hPa | 0 mm | - | - | - |
| 1778063450 | 2.78° C | 75% | 980.8 hPa | 0 mm | - | - | - |
| 1778062532 | 3.33° C | 75% | 980.8 hPa | 0 mm | - | - | - |
| 1778061663 | 3.33° C | 75% | 980.8 hPa | 0 mm | - | - | - |
| 1778060733 | 3.33° C | 72% | 979.7 hPa | 0 mm | - | - | - |
| 1778059849 | 3.89° C | 72% | 980.1 hPa | 0 mm | - | - | - |
| 1778058932 | 3.89° C | 72% | 980.1 hPa | 0 mm | - | - | - |
* Rain latest hour (hover to see other rain measurements)
** Current wind speed in m/s (hover to see current wind gust speed)